TimeCST,TemperatureF,Dew PointF,Humidity,Sea Level PressureIn,VisibilityMPH,Wind Direction,Wind SpeedMPH,Gust SpeedMPH,PrecipitationIn,Events,Conditions,WindDirDegrees,DateUTC
12:15 AM,32.0,31.3,97,30.19,10.0,NNW,3.5,-,N/A,,Clear,340,2012-11-04 05:15:00
12:35 AM,32.4,32.0,99,30.19,10.0,NNW,3.5,-,N/A,,Clear,340,2012-11-04 05:35:00
12:55 AM,32.9,32.0,96,30.19,10.0,Calm,Calm,-,N/A,,Clear,0,2012-11-04 05:55:00
1:15 AM,32.0,31.1,96,30.19,10.0,Calm,Calm,-,N/A,,Clear,0,2012-11-04 06:15:00
1:35 AM,32.0,30.9,96,30.19,10.0,Calm,Calm,-,N/A,,Clear,0,2012-11-04 06:35:00
1:55 AM,32.0,31.1,96,30.19,10.0,Calm,Calm,-,N/A,,Clear,0,2012-11-04 06:55:00
1:15 AM,30.9,29.8,96,30.19,10.0,Calm,Calm,-,N/A,,Clear,0,2012-11-04 07:15:00
1:35 AM,31.1,30.2,96,30.19,10.0,North,3.5,-,N/A,,Clear,350,2012-11-04 07:35:00
1:55 AM,32.0,30.9,96,30.20,10.0,Calm,Calm,-,N/A,,Clear,0,2012-11-04 07:55:00
2:15 AM,31.8,30.2,94,30.20,10.0,Calm,Calm,-,N/A,,Clear,0,2012-11-04 08:15:00
2:35 AM,31.1,29.8,95,30.20,10.0,Calm,Calm,-,N/A,,Clear,0,2012-11-04 08:35:00
2:55 AM,31.1,29.8,95,30.19,10.0,North,3.5,-,N/A,,Clear,360,2012-11-04 08:55:00
3:15 AM,31.5,29.8,94,30.19,10.0,North,3.5,-,N/A,,Scattered Clouds,360,2012-11-04 09:15:00
3:35 AM,31.5,29.8,94,30.20,10.0,Calm,Calm,-,N/A,,Scattered Clouds,0,2012-11-04 09:35:00
3:55 AM,31.6,30.0,94,30.20,10.0,North,3.5,-,N/A,,Mostly Cloudy,350,2012-11-04 09:55:00
4:15 AM,31.1,29.5,94,30.21,10.0,NNW,3.5,-,N/A,,Mostly Cloudy,330,2012-11-04 10:15:00
4:35 AM,30.7,29.1,94,30.22,10.0,NNW,3.5,-,N/A,,Scattered Clouds,340,2012-11-04 10:35:00
4:55 AM,31.5,30.0,94,30.22,10.0,Calm,Calm,-,N/A,,Scattered Clouds,0,2012-11-04 10:55:00
5:15 AM,31.1,29.8,95,30.21,10.0,Calm,Calm,-,N/A,,Clear,0,2012-11-04 11:15:00
5:35 AM,29.1,27.7,94,30.22,7.0,Calm,Calm,-,N/A,,Clear,0,2012-11-04 11:35:00
5:55 AM,29.3,28.2,96,30.21,7.0,Calm,Calm,-,N/A,,Clear,0,2012-11-04 11:55:00
6:15 AM,28.4,27.3,96,30.22,7.0,North,3.5,-,N/A,,Clear,350,2012-11-04 12:15:00
6:35 AM,29.1,28.2,96,30.22,7.0,NNW,3.5,-,N/A,,Clear,330,2012-11-04 12:35:00
6:55 AM,29.7,28.9,97,30.23,7.0,North,3.5,-,N/A,,Clear,350,2012-11-04 12:55:00
7:15 AM,31.6,30.6,96,30.23,10.0,Calm,Calm,-,N/A,,Clear,0,2012-11-04 13:15:00
7:35 AM,32.5,31.5,96,30.24,7.0,Calm,Calm,-,N/A,,Clear,0,2012-11-04 13:35:00
7:55 AM,34.0,32.0,92,30.23,7.0,Calm,Calm,-,N/A,,Clear,0,2012-11-04 13:55:00
8:15 AM,35.8,32.7,89,30.24,7.0,Calm,Calm,-,N/A,,Clear,0,2012-11-04 14:15:00
8:35 AM,38.1,33.6,84,30.24,7.0,Calm,Calm,-,N/A,,Clear,0,2012-11-04 14:35:00
8:55 AM,39.2,33.8,81,30.24,7.0,NNE,3.5,-,N/A,,Clear,20,2012-11-04 14:55:00
9:15 AM,41.0,34.3,77,30.24,10.0,NNE,3.5,-,N/A,,Clear,20,2012-11-04 15:15:00
9:35 AM,42.3,34.5,74,30.23,7.0,North,3.5,-,N/A,,Clear,360,2012-11-04 15:35:00
9:55 AM,43.0,34.7,73,30.24,10.0,North,3.5,-,N/A,,Clear,350,2012-11-04 15:55:00
10:15 AM,44.1,35.1,71,30.24,10.0,Calm,Calm,-,N/A,,Clear,0,2012-11-04 16:15:00
10:35 AM,43.7,35.1,72,30.24,10.0,North,3.5,-,N/A,,Mostly Cloudy,360,2012-11-04 16:35:00
10:55 AM,44.1,35.4,72,30.24,10.0,North,4.6,-,N/A,,Overcast,360,2012-11-04 16:55:00
11:15 AM,44.4,35.4,71,30.23,10.0,North,5.8,-,N/A,,Overcast,350,2012-11-04 17:15:00
11:35 AM,45.0,36.0,71,30.22,10.0,NNW,6.9,-,N/A,,Overcast,330,2012-11-04 17:35:00
11:55 AM,45.9,36.5,70,30.21,10.0,North,6.9,-,N/A,,Overcast,350,2012-11-04 17:55:00
12:15 PM,45.9,36.5,70,30.21,10.0,NNW,4.6,-,N/A,,Overcast,340,2012-11-04 18:15:00
12:35 PM,45.7,34.7,65,30.20,10.0,NNW,5.8,-,N/A,,Overcast,330,2012-11-04 18:35:00
12:55 PM,45.7,35.1,66,30.20,10.0,NNW,4.6,-,N/A,,Overcast,340,2012-11-04 18:55:00
1:15 PM,47.7,35.1,62,30.19,10.0,North,3.5,-,N/A,,Mostly Cloudy,350,2012-11-04 19:15:00
1:35 PM,47.1,34.9,62,30.19,10.0,North,4.6,-,N/A,,Overcast,350,2012-11-04 19:35:00
1:55 PM,46.6,34.3,62,30.18,10.0,NNW,4.6,-,N/A,,Overcast,340,2012-11-04 19:55:00
2:15 PM,46.8,34.2,62,30.18,10.0,NNW,5.8,-,N/A,,Overcast,340,2012-11-04 20:15:00
2:35 PM,46.4,33.6,61,30.18,10.0,NNW,4.6,-,N/A,,Overcast,330,2012-11-04 20:35:00
2:55 PM,46.6,34.3,62,30.19,10.0,NNW,6.9,-,N/A,,Overcast,330,2012-11-04 20:55:00
3:15 PM,48.0,35.4,62,30.18,10.0,NW,6.9,-,N/A,,Overcast,310,2012-11-04 21:15:00
3:35 PM,46.4,33.6,61,30.18,10.0,NW,6.9,-,N/A,,Scattered Clouds,320,2012-11-04 21:35:00
3:55 PM,46.0,33.1,61,30.17,10.0,NW,3.5,-,N/A,,Scattered Clouds,310,2012-11-04 21:55:00
4:15 PM,44.6,34.0,66,30.17,10.0,NW,3.5,-,N/A,,Clear,310,2012-11-04 22:15:00
4:35 PM,43.0,34.7,73,30.17,7.0,WNW,3.5,-,N/A,,Scattered Clouds,290,2012-11-04 22:35:00
4:55 PM,41.2,34.9,78,30.18,10.0,West,4.6,-,N/A,,Scattered Clouds,280,2012-11-04 22:55:00
5:15 PM,41.0,34.0,76,30.18,10.0,West,4.6,-,N/A,,Scattered Clouds,280,2012-11-04 23:15:00
5:35 PM,40.1,34.2,79,30.18,10.0,West,4.6,-,N/A,,Scattered Clouds,280,2012-11-04 23:35:00
5:55 PM,38.1,33.3,83,30.18,10.0,Calm,Calm,-,N/A,,Clear,0,2012-11-04 23:55:00
6:15 PM,37.8,32.9,83,30.18,10.0,Calm,Calm,-,N/A,,Clear,0,2012-11-05 00:15:00
6:35 PM,38.1,32.9,81,30.18,10.0,Calm,Calm,-,N/A,,Clear,0,2012-11-05 00:35:00
6:55 PM,36.9,32.2,83,30.17,10.0,WNW,3.5,-,N/A,,Clear,290,2012-11-05 00:55:00
7:15 PM,36.7,32.4,84,30.17,10.0,WNW,3.5,-,N/A,,Clear,300,2012-11-05 01:15:00
7:35 PM,34.9,31.8,89,30.18,10.0,WNW,3.5,-,N/A,,Clear,290,2012-11-05 01:35:00
7:55 PM,35.6,32.2,87,30.18,10.0,NW,3.5,-,N/A,,Clear,310,2012-11-05 01:55:00
8:15 PM,35.6,32.0,87,30.18,10.0,Calm,Calm,-,N/A,,Clear,0,2012-11-05 02:15:00
8:35 PM,34.7,31.8,89,30.18,10.0,NNW,3.5,-,N/A,,Clear,330,2012-11-05 02:35:00
8:55 PM,34.3,31.3,89,30.18,10.0,NW,4.6,-,N/A,,Clear,320,2012-11-05 02:55:00
9:15 PM,33.8,30.7,89,30.18,10.0,NNW,3.5,-,N/A,,Clear,330,2012-11-05 03:15:00
9:35 PM,33.4,30.6,89,30.17,10.0,NNW,4.6,-,N/A,,Clear,340,2012-11-05 03:35:00
9:55 PM,34.9,30.4,84,30.17,10.0,North,3.5,-,N/A,,Clear,350,2012-11-05 03:55:00
10:15 PM,32.0,29.1,89,30.18,10.0,Calm,Calm,-,N/A,,Clear,0,2012-11-05 04:15:00
10:35 PM,31.6,29.3,91,30.18,10.0,Calm,Calm,-,N/A,,Clear,0,2012-11-05 04:35:00
10:55 PM,30.4,28.6,93,30.19,10.0,Calm,Calm,-,N/A,,Clear,0,2012-11-05 04:55:00